Погода в Песках

Украина / Полтавская область     50°01′00″N   33°05′21″E
темп.,
°C
ветер,
м/с
пор.,
м/с
влажн.,
%
обл.,
%
осадки,
мм/ч
давл.,
гПа
погр.,
м
22 января, пт
пт2223:00−3ююз4119756 0.0 1020265
02:00−3ю499560 0.0 1019201
05:00−3ю499722 0.0 1017195
08:00−3ю5119329 0.0 1017228
11:00+1ююз6109055 0.0 1017340
14:00+2ю5109551 0.0 1016328
17:00+1ю5119496 0.0 1015243
20:000ю5119598 0.0 1015260
23 января, сб
сб2323:00+1ю51193100 0.0 1015273
02:00+2ю61198100 0.0 1014350
05:00+3ю51298100 0.0 1013378
08:00+2ю51198100 0.0 1013336
11:00+4ю51298100 0.0 1013370
14:00+4ю51398100 0.0 1012393
17:00+4ююв5119790 0.0 1012293
20:00+4ююв5129795 0.0 1012341
24 января, вс
вс2423:00+4ююв61298100 0.0 1011335
02:00+4ююв61496100 0.0 1011380
05:00+5ююв71495100 0.0 1010451
08:00+4ююв71592100 0.0 1010443
11:00+6ююв81783100 0.0 1009583
14:00+6ююв91781100 0.1 1007724
17:00+6ююв92081100 0.0 1006832
20:00+5ююв81690100 0.1 1007584
25 января, пн
пн2523:00+6ююв6139497 0.0 1007498
02:00+6ююв6139598 0.1 1007485
05:00+6ююв61394100 0.2 1006481
08:00+5ююв51295100 0.2 1007448
11:00+7ююв51191100 0.0 1007639
14:00+7юв61192100 0.0 1005434
17:00+7юв81687100 0.6 1004648
20:00+7юв91887100 1.6 1002837
26 января, вт
вт2623:00+6юв111888100 1.2 999928
02:00+7ююв91687100 3.4 997909
05:00+5ю9167187 0.3 9951207
08:00+3ююв10187693 0.3 9961393
11:00+2ю11177086 0.1 9951529
14:00+2ю12186993 0.1 9951551
17:00+1юз121883100 1.1 9971290
20:000юз111890100 1.3 10001303